Weather Roundup
Issued by NWS Chicago, IL

Home | Current Version | Previous Version | Graphics & Text | Print | Product List | Glossary On
Versions: 1 2 3 4 5 6 7 8 9 10 11 12 13 14 15 16 17 18 19 20 21 22 23 24 25 26 27 28 29 30 31 32 33 34 35 36 37 38 39 40 41 42 43 44 45 46 47 48 49 50
000
NZUS59 KLOT 241808
HRRLOT

CHICAGO AREA WEATHER ROUNDUP
NATIONAL WEATHER SERVICE CHICAGO/ROMEOVILLE IL
100 PM CDT SUN MAY 24 2015

NOTE: "FAIR" INDICATES FEW OR NO CLOUDS BELOW 12,000 FEET WITH NO
SIGNIFICANT WEATHER AND/OR OBSTRUCTIONS TO VISIBILITY.

* THESE STATIONS ARE NOT UNDER NWS QUALITY CONTROL. THEY ALSO MAY NOT
  REPORT WEATHER SUCH AS PRECIPITATION OR FOG.

ILZ005-006-012>014-019>023-241900-
NORTHEAST ILLINOIS

CITY           SKY/WX    TMP DP  RH WIND       PRES   REMARKS
OHARE          CLOUDY    71  51  49 E10       30.09F
6HR MIN TEMP:  62; 6HR MAX TEMP:  72; 6HR PCP: TRACE;

MIDWAY         CLOUDY    74  55  51 E8        30.10F
6HR MIN TEMP:  62; 6HR MAX TEMP:  75; 6HR PCP:  0.03;

AURORA         CLOUDY    72  55  55 E15       30.07F
6HR MIN TEMP:  61; 6HR MAX TEMP:  72; 6HR PCP: TRACE;

LANSING*       CLOUDY    75  54  48 SE8       30.10F
JOLIET*        CLOUDY    78  60  54 E8        30.07F
WAUKEGAN       CLOUDY    63  52  67 E9        30.12F
6HR MIN TEMP:  59; 6HR MAX TEMP:  65; 6HR PCP: TRACE;

DUPAGE AIRPORT CLOUDY    71  54  54 E8        30.08F
6HR MIN TEMP:  60; 6HR MAX TEMP:  71; 6HR PCP: TRACE;

WHEELING       CLOUDY    67  50  54 E9        30.12F
6HR MIN TEMP:  61; 6HR MAX TEMP:  70; 6HR PCP:  0.02;

KANKAKEE*      PTSUNNY   81  61  49 SE12      30.07F HX  82
MORRIS*        CLOUDY    79  57  47 SE13      30.04F HX  80
LEWIS AIRPORT* CLOUDY    74  56  53 SE9       30.08F
NORTHERLY IS     N/A     60  51  72 NE3         N/A
$$

WIZ051-052-058>065-066-070>072-241900-
SOUTHEAST WISCONSIN

CITY           SKY/WX    TMP DP  RH WIND       PRES   REMARKS
MILWAUKEE      CLOUDY    63  56  78 NE8       30.14F
6HR MIN TEMP:  60; 6HR MAX TEMP:  67; 6HR PCP:  0.06;

KENOSHA*       CLOUDY    65  53  65 E13       30.12F
RACINE*        CLOUDY    65  54  67 NE6       30.15F
BURLINGTON     LGT RAIN  63  57  80 E8        30.10F
WAUKESHA       CLOUDY    63  55  77 E9        30.14F
WEST BEND      RAIN      63  55  77 CALM      30.15F
$$

INZ001>003-010>013-019-020-241900-
NORTHWEST INDIANA

CITY           SKY/WX    TMP DP  RH WIND       PRES   REMARKS
GARY*          CLOUDY    77  55  47 SE8       30.11F
MICHIGAN CITY* NOT AVBL
RENSSELAER*    NOT AVBL
VALPARAISO     CLOUDY    79  57  46 S12G20    30.12F HX  80
$$

LMZ740>746-241900-
SOUTHERN LAKE MICHIGAN

STATION/POSITION TIME  SKY/WX   TEMP WIND        PRES    VSBY
                                AIR  DIR/SP/G
                 (UTC)          (F)  (DEG/KT/KT) (MB)    (MI)
HARRISON CRIB    1700            57   70/  4/  5   N/A
BURNHAM HARBOR   1800            60   40/  3/  6   N/A
CALUMET HARBOR   1700            63   80/  5/  8   N/A
BURNS HARBOR     1700            75  150/  9/ 15 1021.0F
MICHIGAN CITY    1700            72  100/  9/ 11   N/A
$$

ABBREVIATIONS USED IN REMARKS
   TC - TEMPERATURE IN CELSIUS
  WCI - WIND CHILL INDEX
   HX - HEAT INDEX
  VSB - VISIBILITY
$$



USA.gov is the U.S. government's official web portal to all federal, state and local government web resources and services.